When you browse on this site, cookies collect data to enhance your experience and personalize the content and advertising you see.
Visit our Privacy Policy to learn more. By continuing to use the site, you agree to this use of cookies and data.
  • In Lithuania
  • List of Countries
  • For 7 days
  • Water Temperature
  • Satellite Maps
  • Weather Map
  • Weather Widgets
  • user-avatar
    Login

    Hourly Weather Jewłach

    Today, 19 June, Wednesday

    Time Temperature Precipitation Wind Pressure Humidity
    00:00 +26°C° 0.5 mm 3 mps 757 mmHg 63%
    01:00 +26°C° 0.4 mm 3 mps 757 mmHg 65%
    02:00 +26°C° 0.4 mm 3 mps 757 mmHg 66%
    03:00 +25°C° 0.4 mm 2 mps 756 mmHg 68%
    04:00 +26°C° 0 mm 2 mps 757 mmHg 66%
    05:00 +26°C° 0 mm 2 mps 757 mmHg 64%
    06:00 +27°C° 0 mm 2 mps 757 mmHg 62%
    07:00 +28°C° 0 mm 2 mps 757 mmHg 57%
    08:00 +29°C° 0 mm 2 mps 756 mmHg 51%
    09:00 +31°C° 0 mm 3 mps 756 mmHg 46%
    10:00 +33°C° 0 mm 3 mps 756 mmHg 40%
    11:00 +35°C° 0 mm 3 mps 756 mmHg 34%
    12:00 +36°C° 0 mm 2 mps 756 mmHg 28%
    13:00 +37°C° 0 mm 3 mps 755 mmHg 27%
    14:00 +37°C° 0 mm 3 mps 755 mmHg 27%
    15:00 +38°C° 0 mm 4 mps 755 mmHg 26%
    16:00 +38°C° 0 mm 4 mps 755 mmHg 26%
    17:00 +37°C° 0 mm 4 mps 755 mmHg 27%
    18:00 +37°C° 0 mm 3 mps 755 mmHg 28%
    19:00 +35°C° 0 mm 3 mps 755 mmHg 31%
    20:00 +34°C° 0 mm 3 mps 756 mmHg 33%
    21:00 +31°C° 0 mm 3 mps 756 mmHg 36%
    22:00 +30°C° 0 mm 3 mps 756 mmHg 36%
    23:00 +30°C° 0 mm 3 mps 756 mmHg 37%

    Tomorrow, 20 June, Thursday

    Time Temperature Precipitation Wind Pressure Humidity
    00:00 +29°C° 0 mm 3 mps 756 mmHg 37%
    01:00 +28°C° 0 mm 3 mps 756 mmHg 38%
    02:00 +28°C° 0 mm 3 mps 756 mmHg 39%
    03:00 +27°C° 0 mm 3 mps 756 mmHg 40%
    04:00 +27°C° 0 mm 2 mps 756 mmHg 41%
    05:00 +28°C° 0 mm 2 mps 756 mmHg 41%
    06:00 +28°C° 0 mm 2 mps 756 mmHg 41%
    07:00 +30°C° 0 mm 3 mps 756 mmHg 36%
    08:00 +33°C° 0 mm 3 mps 756 mmHg 31%
    09:00 +35°C° 0 mm 4 mps 756 mmHg 25%
    10:00 +36°C° 0 mm 4 mps 756 mmHg 24%
    11:00 +37°C° 0 mm 4 mps 755 mmHg 23%
    12:00 +39°C° 0 mm 5 mps 755 mmHg 21%
    13:00 +39°C° 0 mm 5 mps 754 mmHg 21%
    14:00 +40°C° 0 mm 5 mps 754 mmHg 20%
    15:00 +40°C° 0 mm 5 mps 754 mmHg 20%
    16:00 +40°C° 0 mm 5 mps 754 mmHg 21%
    17:00 +39°C° 0 mm 5 mps 754 mmHg 22%
    18:00 +39°C° 0 mm 5 mps 754 mmHg 22%
    19:00 +36°C° 0 mm 5 mps 754 mmHg 25%
    20:00 +34°C° 0 mm 6 mps 755 mmHg 27%
    21:00 +32°C° 0 mm 6 mps 755 mmHg 30%
    22:00 +30°C° 0 mm 5 mps 756 mmHg 31%
    23:00 +29°C° 0 mm 4 mps 756 mmHg 33%

    Day after tomorrow, 21 June, Friday

    Time Temperature Precipitation Wind Pressure Humidity
    00:00 +28°C° 0 mm 3 mps 756 mmHg 35%
    01:00 +28°C° 0 mm 3 mps 756 mmHg 36%
    02:00 +27°C° 0 mm 3 mps 756 mmHg 37%
    03:00 +27°C° 0 mm 3 mps 755 mmHg 38%
    04:00 +27°C° 0 mm 3 mps 756 mmHg 37%
    05:00 +28°C° 0 mm 3 mps 756 mmHg 37%
    06:00 +28°C° 0 mm 3 mps 756 mmHg 36%
    07:00 +30°C° 0 mm 4 mps 756 mmHg 33%
    08:00 +33°C° 0 mm 4 mps 756 mmHg 30%
    09:00 +34°C° 0 mm 4 mps 756 mmHg 27%
    10:00 +35°C° 0 mm 5 mps 756 mmHg 26%
    11:00 +36°C° 0 mm 5 mps 756 mmHg 24%
    12:00 +37°C° 0 mm 5 mps 755 mmHg 23%
    13:00 +39°C° 0 mm 5 mps 755 mmHg 23%
    14:00 +39°C° 0 mm 6 mps 755 mmHg 24%
    15:00 +39°C° 0 mm 6 mps 755 mmHg 24%
    16:00 +39°C° 0 mm 6 mps 755 mmHg 26%
    17:00 +38°C° 0 mm 6 mps 755 mmHg 27%
    18:00 +37°C° 0 mm 5 mps 755 mmHg 28%
    19:00 +35°C° 0 mm 5 mps 756 mmHg 32%
    20:00 +34°C° 0 mm 5 mps 756 mmHg 35%
    21:00 +32°C° 0 mm 4 mps 757 mmHg 39%
    22:00 +32°C° 0 mm 4 mps 757 mmHg 39%
    23:00 +32°C° 0 mm 4 mps 757 mmHg 40%

    22 June, Saturday

    Time Temperature Precipitation Wind Pressure Humidity
    00:00 +30°C° 0 mm 3 mps 757 mmHg 40%
    01:00 +29°C° 0 mm 3 mps 757 mmHg 41%
    02:00 +29°C° 0 mm 3 mps 757 mmHg 42%
    03:00 +28°C° 0 mm 3 mps 757 mmHg 43%
    04:00 +28°C° 0 mm 2 mps 757 mmHg 45%
    05:00 +29°C° 0 mm 2 mps 757 mmHg 44%
    06:00 +29°C° 0 mm 1 mps 757 mmHg 43%
    07:00 +31°C° 0 mm 2 mps 757 mmHg 39%
    08:00 +32°C° 0 mm 2 mps 757 mmHg 35%
    09:00 +35°C° 0 mm 2 mps 757 mmHg 31%
    10:00 +36°C° 0 mm 3 mps 757 mmHg 28%
    11:00 +38°C° 0 mm 3 mps 757 mmHg 26%
    12:00 +40°C° 0 mm 4 mps 757 mmHg 24%
    13:00 +40°C° 0 mm 5 mps 756 mmHg 23%
    14:00 +41°C° 0 mm 5 mps 756 mmHg 23%
    15:00 +41°C° 0 mm 6 mps 756 mmHg 22%
    16:00 +40°C° 0 mm 5 mps 756 mmHg 23%
    17:00 +40°C° 0 mm 5 mps 756 mmHg 24%
    18:00 +39°C° 0 mm 5 mps 756 mmHg 25%
    19:00 +37°C° 0 mm 5 mps 757 mmHg 28%
    20:00 +35°C° 0 mm 5 mps 757 mmHg 32%
    21:00 +33°C° 0 mm 4 mps 758 mmHg 36%
    22:00 +32°C° 0 mm 4 mps 758 mmHg 39%
    23:00 +30°C° 0 mm 4 mps 758 mmHg 41%

    23 June, Sunday

    Time Temperature Precipitation Wind Pressure Humidity
    00:00 +29°C° 0 mm 4 mps 758 mmHg 44%
    01:00 +29°C° 0 mm 3 mps 758 mmHg 46%
    02:00 +29°C° 0 mm 3 mps 758 mmHg 47%
    03:00 +28°C° 0 mm 2 mps 758 mmHg 49%
    04:00 +29°C° 0 mm 2 mps 758 mmHg 47%
    05:00 +29°C° 0 mm 1 mps 758 mmHg 45%
    06:00 +30°C° 0 mm 1 mps 758 mmHg 44%
    07:00 +31°C° 0 mm 1 mps 758 mmHg 40%
    08:00 +33°C° 0 mm 1 mps 758 mmHg 35%
    09:00 +36°C° 0 mm 2 mps 758 mmHg 31%
    10:00 +37°C° 0 mm 2 mps 757 mmHg 28%
    11:00 +38°C° 0 mm 3 mps 757 mmHg 26%
    12:00 +40°C° 0 mm 3 mps 757 mmHg 23%
    13:00 +41°C° 0 mm 4 mps 756 mmHg 23%
    14:00 +42°C° 0 mm 4 mps 756 mmHg 22%
    15:00 +42°C° 0 mm 4 mps 756 mmHg 22%
    16:00 +42°C° 0 mm 4 mps 756 mmHg 22%
    17:00 +42°C° 0 mm 5 mps 756 mmHg 22%
    18:00 +41°C° 0 mm 5 mps 756 mmHg 23%
    19:00 +39°C° 0 mm 5 mps 756 mmHg 26%
    20:00 +36°C° 0 mm 5 mps 757 mmHg 30%
    21:00 +35°C° 0 mm 5 mps 757 mmHg 34%
    22:00 +34°C° 0 mm 5 mps 757 mmHg 35%
    23:00 +33°C° 0 mm 4 mps 757 mmHg 37%

    24 June, Monday

    Time Temperature Precipitation Wind Pressure Humidity
    00:00 +32°C° 0 mm 4 mps 757 mmHg 38%
    01:00 +30°C° 0 mm 3 mps 757 mmHg 40%
    02:00 +30°C° 0 mm 3 mps 757 mmHg 42%
    03:00 +29°C° 0 mm 2 mps 757 mmHg 44%
    04:00 +29°C° 0 mm 2 mps 757 mmHg 43%
    05:00 +30°C° 0 mm 1 mps 757 mmHg 42%
    06:00 +28°C° 0 mm 0 mps 757 mmHg 41%
    07:00 +32°C° 0 mm 1 mps 757 mmHg 38%
    08:00 +35°C° 0 mm 2 mps 757 mmHg 34%
    09:00 +36°C° 0 mm 2 mps 757 mmHg 31%
    10:00 +38°C° 0 mm 2 mps 757 mmHg 28%
    11:00 +39°C° 0 mm 3 mps 756 mmHg 26%
    12:00 +40°C° 0 mm 3 mps 756 mmHg 23%
    13:00 +42°C° 0 mm 3 mps 756 mmHg 22%
    14:00 +43°C° 0 mm 4 mps 755 mmHg 21%
    15:00 +43°C° 0 mm 5 mps 755 mmHg 20%
    16:00 +43°C° 0 mm 4 mps 755 mmHg 20%
    17:00 +42°C° 0 mm 4 mps 755 mmHg 21%
    18:00 +42°C° 0 mm 4 mps 755 mmHg 21%
    19:00 +40°C° 0 mm 5 mps 756 mmHg 25%
    20:00 +37°C° 0 mm 5 mps 756 mmHg 29%
    21:00 +34°C° 0 mm 5 mps 757 mmHg 33%
    22:00 +34°C° 0 mm 4 mps 757 mmHg 36%
    23:00 +33°C° 0 mm 4 mps 757 mmHg 39%
    Show more